Location: Invercargill
(46.4000°S, 168.3500°E)
Time: 03:22:23
(UTC+12:00)

ISS - Visible Passes

Search period start: 17 May 2021 00:00
Search period end: 27 May 2021 00:00
Orbit: 417 x 422 km, 51.6° (Epoch: 15 May)

Date Brightness Start Highest point End Pass type
(mag) Time Alt. Az. Time Alt. Az. Time Alt. Az.
20 May -0.7 07:15:55 10° N 07:18:21 18° NE 07:20:47 10° E visible
21 May -0.4 06:29:52 10° NNE 06:31:06 12° NE 06:32:19 10° ENE visible
22 May -2.4 07:16:39 10° NW 07:19:56 43° NE 07:23:14 10° ESE visible
23 May -1.7 06:29:34 10° NNW 06:32:34 28° NE 06:35:34 10° E visible
24 May -1.2 05:44:14 16° NNE 05:45:14 18° NE 05:47:42 10° E visible
24 May -3.7 07:18:15 10° WNW 07:21:42 84° SSW 07:25:10 10° ESE visible
25 May -3.4 06:32:26 26° NW 06:34:13 67° NNE 06:37:39 10° ESE visible
26 May -2.3 05:47:24 38° ENE 05:47:24 38° ENE 05:50:06 10° ESE visible
26 May -3.3 07:20:24 11° W 07:23:37 46° SSW 07:26:58 10° ESE visible
